Lamoni, IA

8:27 PM CDT on September 19, 2019 (GMT -0500)
Lamoni Municipal

Weather History for KLWD - August, 2019

Change the Weather History Date:

Monday, August 19, 2019

  Actual Average Record
Temperature  
Mean Temperature 77 °F 74 °F  
Max Temperature 87 °F 84 °F 100 °F (1983)
Min Temperature 67 °F 64 °F 51 °F (1967)
Degree Days  
Heating Degree Days 0 0  
Month to date heating degree days 0 0  
Since 1 June heating degree days 6 21  
Since 1 July heating degree days 0 2  
Cooling Degree Days 12 9  
Month to date cooling degree days 189 184  
Year to date cooling degree days 836 747  
Since 1 June cooling degree days 779 693  
Growing Degree Days 26 (Base 50)    
Moisture  
Dew Point 71 °F    
Average Humidity 83    
Maximum Humidity 100    
Minimum Humidity 65    
Precipitation  
Precipitation 0.00 in 0.13 in 1.70 in (1990)
Month to date precipitation 2.24 2.57  
Sea Level Pressure  
Sea Level Pressure 29.97 in    
Wind  
Wind Speed 3 mph (NNE)    
Max Wind Speed 7 mph    
Max Gust Speed 11 mph    
Visibility 9 miles    
Events      
T = Trace of Precipitation, MM = Missing Value Source: NWS Daily Summary

Daily Weather History Graph

Daily Weather History Graph

Search for Another Location

Airport or City:

Astronomy

Aug. 19, 2019 Rise Set
Actual Time 6:29 AM CDT 8:07 PM CDT
Civil Twilight 6:00 AM CDT 8:36 PM CDT
Nautical Twilight 5:25 AM CDT 9:11 PM CDT
Astronomical Twilight 4:48 AM CDT 9:49 PM CDT
Moon 10:28 PM CDT (8/19) 10:12 AM CDT (8/19)
Length of Visible Light 14h 36m
Length of Day
13h 38m
Waning Gibbous, 85% of the Moon is Illuminated
Aug 19
Waning Gibbous
Aug 23
Last Quarter
Aug 30
New
Sep 5
First Quarter
Sep 13
Full

Hourly Weather History & Observations

Time (CDT) Temp. Heat Index Dew Point Humidity Pressure Visibility Wind Dir Wind Speed Gust Speed Precip Events Conditions
12:53 AM 69.1 °F - 66.9 °F 93% 29.92 in 9.0 mi WNW 5.8 mph - N/A   Clear
1:53 AM 68.0 °F - 66.9 °F 96% 29.92 in 7.0 mi NW 5.8 mph - N/A   Clear
2:53 AM 66.9 °F - 66.0 °F 97% 29.93 in 7.0 mi WNW 4.6 mph - N/A   Scattered Clouds
3:53 AM 68.0 °F - 66.9 °F 96% 29.94 in 9.0 mi Calm Calm - N/A   Overcast
4:53 AM 68.0 °F - 66.9 °F 96% 29.95 in 10.0 mi NNW 4.6 mph - N/A   Mostly Cloudy
5:53 AM 68.0 °F - 66.9 °F 96% 29.96 in 8.0 mi North 3.5 mph - N/A   Mostly Cloudy
6:53 AM 68.0 °F - 66.0 °F 93% 29.98 in 5.0 mi Calm Calm - N/A   Partly Cloudy
7:53 AM 70.0 °F - 66.9 °F 90% 29.99 in 8.0 mi North 4.6 mph - N/A   Unknown
8:53 AM 73.0 °F - 69.1 °F 87% 29.99 in 10.0 mi NNW 5.8 mph - N/A   Partly Cloudy
9:53 AM 77.0 °F - 70.0 °F 79% 30.00 in 10.0 mi Calm Calm - N/A   Clear
10:53 AM 79.0 °F - 71.1 °F 77% 30.01 in 10.0 mi Calm Calm - N/A   Clear
11:53 AM 81.0 °F 85.2 °F 72.0 °F 74% 30.00 in 10.0 mi Variable 4.6 mph - N/A   Partly Cloudy
12:53 PM 82.9 °F 88.0 °F 72.0 °F 69% 30.00 in 10.0 mi Variable 4.6 mph - N/A   Clear
1:29 PM 84.0 °F 89.6 °F 72.0 °F 67% 30.02 in 10.0 mi North 4.6 mph - N/A   Mostly Cloudy
1:42 PM 84.0 °F 89.6 °F 72.0 °F 67% 30.02 in 10.0 mi Calm Calm - N/A   Scattered Clouds
1:53 PM 84.9 °F 91.4 °F 73.0 °F 67% 29.99 in 10.0 mi Calm Calm - N/A   Partly Cloudy
2:53 PM 84.9 °F 91.4 °F 73.0 °F 67% 29.98 in 10.0 mi ENE 4.6 mph - N/A   Scattered Clouds
3:07 PM 84.9 °F 92.1 °F 73.9 °F 69% 30.00 in 10.0 mi NE 4.6 mph - N/A   Mostly Cloudy
3:18 PM 86.0 °F 93.8 °F 73.9 °F 67% 29.99 in 10.0 mi Variable 3.5 mph - N/A   Scattered Clouds
3:53 PM 86.0 °F 93.0 °F 73.0 °F 65% 29.96 in 10.0 mi Calm Calm - N/A   Clear
4:53 PM 86.0 °F 93.0 °F 73.0 °F 65% 29.95 in 10.0 mi Variable 3.5 mph - N/A   Clear
5:53 PM 84.9 °F 92.1 °F 73.9 °F 69% 29.95 in 10.0 mi ENE 5.8 mph - N/A   Clear
6:53 PM 84.0 °F 91.2 °F 73.9 °F 72% 29.94 in 10.0 mi East 3.5 mph - N/A   Clear
7:53 PM 81.0 °F 86.2 °F 73.9 °F 79% 29.95 in 10.0 mi Calm Calm - N/A   Clear
8:53 PM 79.0 °F - 73.0 °F 82% 29.95 in 10.0 mi East 4.6 mph - N/A   Clear
9:53 PM 78.1 °F - 73.0 °F 84% 29.96 in 10.0 mi East 3.5 mph - N/A   Clear
10:53 PM 78.1 °F - 72.0 °F 81% 29.97 in 10.0 mi East 5.8 mph - N/A   Mostly Cloudy
11:53 PM 78.1 °F - 72.0 °F 81% 29.96 in 10.0 mi ESE 4.6 mph - N/A   Mostly Cloudy